Weather in Jacmel

Haiti     18°13′57″N   72°32′18″W
temp.,
°C
wind,
m/s
gust,
m/s
humid.,
%
clouds,
%
prec.,
mm/h
press.,
hPa
HPBL,
m
17 may, tue
tue1723:00+23ne2285100 0.0 1017196
02:00+22n118260 0.0 101657
05:00+23n227761 0.0 101555
08:00+26e126318 0.0 1017195
11:00+28sse3461100 0.0 1017831
14:00+28sse46669 0.0 1016885
17:00+27sse457156 0.2 1015715
20:00+24se238579 1.2 101794
18 may, wed
wed1823:00+24nnw118311 0.3 101819
02:00+24n118090 0.4 101649
05:00+24ne118025 0.0 101695
08:00+25ese01777 0.0 1017289
11:00+28s3265100 0.0 1017867
14:00+28sse3368100 0.5 1016822
17:00+27sse3377100 1.8 1015558
20:00+25sse238852 4.3 1016176
19 may, thu
thu1923:00+24e0187100 1.2 101899
02:00+24e018891 1.3 1016172
05:00+23ene118965 0.0 1016184
08:00+25s118484 0.1 1017312
11:00+27sse3374100 0.1 1017834
14:00+28sse4467100 0.1 1016875
17:00+27sse337195 0.3 1014660
20:00+25se2481100 1.0 1016159
20 may, fri
fri2023:00+25ese2286100 0.2 1018115
02:00+24ese128865 0.2 1016227
05:00+23ese238980 0.0 1016288
08:00+25se238085 0.1 1018586
11:00+28se456395 0.0 1018959
14:00+28sse5663100 0.0 1017936
17:00+27se4568100 0.1 1017580
20:00+24e2380100 0.3 1018154
21 may, sat
sat2123:00+24nw0181100 0.0 1019103
02:00+23e1186100 0.0 1018206
05:00+23nw1187100 0.0 1018157
08:00+25nne1177100 0.0 1019198
11:00+28sse4459100 0.0 1019877
14:00+28sse5661100 0.0 1018980
17:00+26se4575100 0.4 1018714
20:00+24ese1280100 0.9 1019128